Location: Penton Mewsey
(51.2167°N, 1.5167°W)
Time: 06:54:30
(UTC+00:00)

N. Korean satellite - Visible Passes

Search period start: 04 March 2021 00:00
Search period end: 14 March 2021 00:00
Orbit: 451 x 502 km, 97.2° (Epoch: 03 March)

Date Brightness Start Highest point End Pass type
(mag) Time Alt. Az. Time Alt. Az. Time Alt. Az.
04 Mar 8.9 04:58:02 10° NE 05:01:03 26° E 05:04:06 10° SSE visible
05 Mar 9.8 04:32:07 10° NE 04:34:05 14° E 04:36:03 10° ESE visible
05 Mar 6.7 06:04:14 10° N 06:07:42 53° WNW 06:11:12 10° SSW visible
06 Mar 6.8 05:37:24 10° NNE 05:40:57 75° ESE 05:44:32 10° S visible
07 Mar 8.3 05:10:48 10° NNE 05:14:07 36° E 05:17:28 10° SSE visible
08 Mar 9.5 04:44:31 10° NE 04:47:10 19° E 04:49:49 10° SE visible
09 Mar 10.2 04:19:35 10° ENE 04:20:07 10° E 04:20:38 10° E visible
09 Mar 6.5 05:50:19 10° N 05:53:54 78° WNW 05:57:30 10° SSW visible
10 Mar 7.5 05:23:34 10° NNE 05:27:05 51° E 05:30:37 10° S visible
11 Mar 9.0 04:57:04 10° NE 05:00:10 26° E 05:03:16 10° SSE visible
12 Mar 9.8 04:31:07 10° NE 04:33:08 14° E 04:35:09 10° ESE visible
13 Mar 6.9 05:36:20 10° NNE 05:39:57 73° ESE 05:43:36 10° S visible
